Volver al catálogo

ONEWEB-0311

ActivoComunicacionesPO
NORAD 49097·PAYLOAD·🇬🇧 United Kingdom

Lanzado Aug 21, 2021 desde Baikonur Cosmodrome

Loading…

Próximos Pases (próximas 24 horas)

TLE

ActualizadoSource: CelesTrak SupGP

Época: Sep 14, 2026, 17:22 UTC

1 49097C 21075Y   26257.72412454  .00002479  00000+0  63924-2 0  2579
2 49097  87.9208 348.0818 0002074 114.3235 357.9719 13.17649634    15

Sigue ONEWEB-0311 en tiempo real con AllMySat

Download on the App Store